Location: Ferintosh
(52.7647°N, 112.9692°W)
Time: 00:52:27
(UTC+00:00)

Vanguard 1 Rocket - Pass Details

Date: 25 May 2024
Orbit: 649 x 4221 km, 34.3° (Epoch: 13 June)

Event Time Altitude Azimuth Distance (km) Brightness Sun altitude
Rises 17:23:18 0° 242° (WSW) 8,143 12.1 50.2°
Reaches altitude 10° 17:30:06 10° 236° (SW) 6,728 11.8 51.0°
Maximum altitude 17:46:46 35° 181° (S) 3,565 11.5 52.8°
Drops below altitude 10° 17:56:37 10° 121° (ESE) 4,000 11.4 53.7°
Sets 17:59:29 0° 112° (ESE) 4,611 11.5 54.0°
